Location: Newark
(46.1292°N, 1.0086°W)
Time: 06:36:19
(UTC+00:00)

Vanguard 2 - Visible Passes

Search period start: 13 November 2019 00:00
Search period end: 23 November 2019 00:00
Orbit: 554 x 2937 km, 32.9° (Epoch: 12 November)

Date Brightness Start Highest point End Pass type
(mag) Time Alt. Az. Time Alt. Az. Time Alt. Az.
19 Nov 11.7 06:20:46 10° S 06:25:42 13° SSE 06:29:51 10° SE visible
20 Nov 11.4 06:36:08 10° SSW 06:43:31 18° SSE 06:49:11 10° ESE visible
21 Nov 11.9 04:50:33 10° SSE 04:52:01 10° SSE 04:53:25 10° SE visible
22 Nov 11.7 05:02:48 10° S 05:09:46 15° SSE 05:15:33 10° ESE visible
